Retour au catalogue

YINHE 2-06

ActifCommunicationsLEO
NORAD 51951·PAYLOAD·🇨🇳 China
Ce nom de satellite n'a pas encore été confirmé par des sources officielles.

Lancé Mar 5, 2022 depuis Xichang Satellite Launch Center

Loading…

Prochains Passages (prochaines 24 heures)

TLE

FraisSource: Space-Track

Époque: Sep 14, 2026, 14:35 UTC

1 51951U 22023F   26257.60827433  .00012354  00000-0  48459-3 0  9993
2 51951  63.4529 329.5147 0135279 341.8205  17.8094 15.17971003251284

Suivez YINHE 2-06 en temps réel avec AllMySat

Download on the App Store